Regional Weather Roundup
Issued by NWS Grand Forks, ND

Home | Current Version | Previous Version | Text Only | Print | Product List | Glossary On
Versions: 1 2 3 4 5 6 7 8 9 10 11 12 13 14 15 16 17 18 19 20 21 22 23 24 25 26 27 28 29 30 31 32 33 34 35 36 37 38 39 40 41 42 43 44 45 46 47 48 49 50
000
ASUS43 KFGF 210931
RWRFGF
PRAIRIE TO PINES  WEATHER ROUNDUP
NATIONAL WEATHER SERVICE EASTERN NORTH DAKOTA/GRAND FORKS ND
300 AM CST SAT JAN 21 2017

 **SATELLITE DATA USED TO AUGMENT SKY COVER AT AUTOMATED STATIONS**
 *****  WEATHER ACROSS EASTERN NORTH DAKOTA  *****

CITY           SKY/WX    TMP DP  RH WIND       PRES   REMARKS
GRAND FORKS    CLOUDY    35  32  88 SE10      29.41F
GRAND FRKS AFB CLOUDY    34  34  99 SE10      29.41S
DEVILS LAKE    MIX PCPN N/A N/A N/A SE8       29.36S VSB 3/4
FARGO          CLOUDY    38  35  89 SE12      29.41S
WAHPETON ARPT  CLOUDY    34  32  93 SE12      29.41F
$$

 ***** WEATHER ACROSS CENTRAL AND WESTERN NORTH DAKOTA  *****

CITY           SKY/WX    TMP DP  RH WIND       PRES   REMARKS
BISMARCK       CLOUDY    31  30  96 W6        29.32S FOG
MINOT          CLOUDY    29  28  96 S3        29.31S FOG
JAMESTOWN      FOG       33  33 100 SE9       29.33S VSB 1/4
MINOT AFB      MOCLDY    27  27 100 CALM      29.30F FOG
GARRISON         N/A     23  22  96 CALM      29.30F
WILLISTON      CLOUDY    24  22  91 CALM      29.31R
DICKINSON      CLOUDY    29  25  85 NW12      29.27R WCI  19
HETTINGER      CLOUDY    30  26  85 NW13      29.30R WCI  20
$$

 *****  OTHER AIRPORT OBSERVATIONS IN OUR AREA  *****

CITY           SKY/WX    TMP DP  RH WIND       PRES   REMARKS
WALHALLA       NOT AVBL
GRAFTON AIRPOR CLOUDY    34  34 100 SE10      29.43F
VALLEY CITY AR FOG       32  32 100 SE9       29.37F VSB 1/4 WCI  24
CANDO          NOT AVBL
CAVALIER APRT  FOG       34  34 100 S8        29.41S VSB 1/2
GWINNER        CLOUDY    34  34 100 SE13      29.36F VSB 1/4 WCI  25
SHEYENNE NWR     N/A     33  33 100 SE10      29.95S WCI  25
ROLLA            N/A    N/A N/A N/A MISG        N/A
 ***** THE ABOVE OBSERVATIONS ARE NON NWS ARE NOT QUALITY
       CONTROLLED AND MAY MIS-REPORT RAIN FOR SNOW...
$$

  *****  WEATHER ACROSS NORTHERN MINNESOTA  *****

CITY           SKY/WX    TMP DP  RH WIND       PRES   REMARKS
FLAG ISLAND    CLOUDY    34  32  93 SE5       29.49S FOG
WARROAD        CLOUDY    36  30  80 SE7       29.48F
ROSEAU         CLOUDY    36  30  80 SE8       29.46F
HALLOCK        CLOUDY    36  34  93 SE9       29.42F
THF RVR FALLS  CLOUDY    35  33  92 SE12      29.44F
BAUDETTE       CLOUDY    34  33  96 SE7       29.49S FOG
WASKISH        CLOUDY    36  34  93 SE7       29.48F
CROOKSTON      MIX PCPN  36  34  93 SE7       29.43S
STEPHEN NDAWN    N/A     34  34 100 SE8         N/A
GREENBUSH NDAW   N/A     34  34 100 SE3         N/A
$$
  *****  WEATHER ACROSS CENTRAL AND WEST MINNESOTA  *****

CITY           SKY/WX    TMP DP  RH WIND       PRES   REMARKS
FOSSTON        CLOUDY    34  32  93 E10       29.44S
BEMIDJI        CLOUDY    33  33  99 SE6       29.46F
PARK RAPIDS    CLOUDY    34  31  88 SE7       29.44F FOG
ELBOW LAKE     CLOUDY    33  33 100 SE9       29.42F FOG
WADENA         FOG       32  32 100 E6        29.44F VSB 1
DETROIT LAKES  CLOUDY    34  34 100 SE9       29.43F FOG
MOORHEAD       CLOUDY    34  34 100 SE7       29.42F FOG
FERGUS FALLS   CLOUDY    36  36 100 SE9       29.46S
MORRIS MN      CLOUDY    34  34 100 SE13      29.40F FOG     WCI  25
STAPLES        CLOUDY    34  34 100 SE3       29.45F FOG
$$
  *****  WEATHER ELSEWHERE ACROSS MINNESOTA  *****

CITY           SKY/WX    TMP DP  RH WIND       PRES   REMARKS
DULUTH         DRZL/FOG  34  34 100 E8        29.52F VSB 1/8
INTRNTL FALLS  LGT SNOW  33  31  92 SE7       29.52F FOG
ELY            CLOUDY    34  34 100 E3        29.54F
CLOQUET        FOG       34  34 100 E5        29.51F VSB 1/4
WHEATON        CLOUDY    39  39 100 SE13      29.42F FOG
BRAINERD       FOG       33  33 100 E6        29.48F VSB 1/2
HIBBING        CLOUDY    32  32 100 SE6       29.51F FOG
ALEXANDRIA     FOG       33  33 100 SE9       29.45R VSB 3/4
SAINT CLOUD    FOG       34  34 100 SE6       29.47F VSB 1/4
MINNEAPOLIS    CLOUDY    35  34  96 SE8       29.49F FOG
$$

  *****  WEATHER ACROSS SOUTH DAKOTA  *****

CITY           SKY/WX    TMP DP  RH WIND       PRES   REMARKS
SIOUX FALLS    LGT RAIN  36  36 100 SE7       29.35F VSB 1/2
BROOKINGS      LGT RAIN  36  34  93 SE12      29.34F VSB 1
WATERTOWN      FOG       34  34 100 SE9       29.34S VSB 1/2
HURON          CLOUDY    30  30 100 NW8       29.33S WCI  22
SISSETON         N/A     34  34 100 S10       29.38S
ABERDEEN       CLOUDY    30  27  88 NE6       29.33F WCI  24
MITCHELL       CLOUDY    38  38 100 SW6       29.34S
PIERRE         CLOUDY    26  25  96 W7        29.32R WCI  18
MOBRIDGE       CLOUDY    24  21  88 CALM      29.29R FOG
RAPID CITY     CLOUDY    34  30  85 N14       29.34S WCI  25
$$

  *****  SOME WEATHER IN NEARBY STATES *****

CITY           SKY/WX    TMP DP  RH WIND       PRES   REMARKS
GLASGOW MT     FAIR      23  21  92 NW12      29.33S WCI  12
GREAT FALLS MT FAIR      25  17  72 SW8       29.31S WCI  16
CHEYENNE WY    FAIR      24  17  74 SW14      29.38F WCI  12
SCOTTSBLUFF NE FAIR      26  21  81 N7        29.41R WCI  18
OMAHA NE       FOG       41  38  89 S6        29.39S VSB 1/2
DES MOINES IA  FOG       41  40  96 S7        29.40F VSB 1/4
DAVENPORT IA   FOG       43  43 100 SE10      29.49F VSB 1/4
CHICAGO IL     CLOUDY    45  45 100 SE7       29.56F FOG
EAU CLAIRE WI  CLOUDY    34  34 100 E6        29.52F FOG
LA CROSSE WI   CLOUDY    39  35  86 SE7       29.51F FOG
$$

  *****  SOME NATIONAL WEATHER *****

CITY           SKY/WX    TMP DP  RH WIND       PRES   REMARKS
LA GUARDIA NY  CLOUDY    45  41  86 SW8       29.90F FOG
RALEIGH NC     FOG       52  51  97 CALM      29.92S VSB 1/8
ATLANTA GA     FOG       63  63 100 S8        29.86F VSB 1/4
NEW ORLEANS LA CLOUDY    72  70  93 S18       29.66F
OKLAHOMA CITY  FAIR      42  33  70 S8        29.55S
ALBUQUERQUE NM LGT RAIN  38  37  97 S12       29.52F
SALT LAKE CITY MOCLDY    35  30  82 S7        29.27S
LOS ANGELES CA MOCLDY    53  44  71 W22       29.62R
BOISE ID       CLOUDY    35  31  85 S10       29.29R
SEATTLE WA     CLOUDY    42  39  89 CALM      29.21R
$$

*** WEATHER ACROSS MANITOBA...SASKATCHEWAN AND ONTARIO ***
                ***ONTARIO***

CITY           SKY/WX    TMP DP  RH WIND       PRES   REMARKS
GERALDTON      FOG       32  32 100 E3        29.66F VSB 1/8
THUNDER BAY    DRIZZLE   34  34 100 E9        29.63F FOG
SIOUX LOOKOUT  LGT RAIN  36  34  93 SE3       29.57F
TORONTO        CLOUDY    37  37 100 S5        29.77F
BIG TROUT LK   CLOUDY    27  27 100 SE7       29.69F WCI  19
PICKLE LAKE    NOT AVBL
DRYDEN         LGT RAIN  36  36 100 E6        29.54F
KENORA         CLOUDY    32  32 100 SE8       29.51R FOG     WCI  25
$$
                *** MANITOBA***

CITY           SKY/WX    TMP DP  RH WIND       PRES   REMARKS
BRANDON        FOG       32  32 100 SE8       29.36R VSB 1   WCI  25
DAUPHIN        LGT SNOW  27  27 100 CALM      29.39S VSB 1
ISLAND LAKE    DRZL/FOG  32  32 100 E5        29.58S VSB 1/2
PILOT MOUND      N/A     32  32 100 SE15        N/A  WCI  22
THE PAS        LGT SNOW  27  25  93 E6        29.42F FOG     WCI  20
THOMPSON       LGT SNOW  27  25  93 E5        29.58R FOG     WCI  21
WINNIPEG       DRIZZLE   34  34 100 SE9       29.44S FOG
LYNN LAKE      CLOUDY    27  27 100 SE10      29.52S FOG     WCI  17
CHURCHILL      FLURRIES  19  18  93 SE18      29.81S WCI   4
GILLAM         FLURRIES  28  27  93 SE6       29.67R WCI  22
$$
                ***SASKATCHEWAN***

CITY           SKY/WX    TMP DP  RH WIND       PRES   REMARKS
ESTEVAN        FOG       14  12  92 E2        29.29F VSB 1/8
KINDERSLEY     PTCLDY    21  19  93 N10       29.32R FOG     WCI  10
LLOYDMINSTER   SNOW      21  19  93 NW8       29.38R VSB 3/8 WCI  12
PRINCE ALBERT  CLOUDY    28  27  93 NE8       29.37R WCI  20
REGINA         CLOUDY    18  16  93 SE6       29.29R FOG     WCI   9
YORKTON        CLOUDY    25  25 100 SE8       29.31F FOG     WCI  16
N. BATTLEFORD  CLOUDY    27 N/A N/A N7        29.36S WCI  19
LA RONGE       FOG       27  27 100 NE7       29.44R VSB 3/8 WCI  19
SASKATOON      CLOUDY    30  28  93 N7        29.35R WCI  23
SWIFT CURRENT  CLOUDY    25  23  93 W13       29.28S WCI  13
$$
NOTE: THESE ARE AUTOMATED STATIONS WITH LIMITED QUALITY CONTROL
      "FAIR" INDICATES FEW OR NO CLOUDS BELOW 12,000 FEET WITH NO
      SIGNIFICANT WEATHER AND/OR OBSTRUCTIONS TO VISIBILITY.
      SKY/WX - SKY CONDITION AND SIGNIFICANT WEATHER.
      TMP - AIR TEMPERATURE.    DP   - DEWPOINT TEMPERATURE.
      RH  - RELATIVE HUMIDITY.  PRES - PRESSURE.
      HX  - HEAT INDEX.         WCI  - WIND CHILL INDEX.
$



USA.gov is the U.S. government's official web portal to all federal, state and local government web resources and services.